Weather History for PAEN - March, 2013

Change the Weather History Date:

Saturday, March 9, 2013

  Actual Average Record
Temperature  
Mean Temperature 34 °F -  
Max Temperature 39 °F 31 °F 45 °F (1981)
Min Temperature 30 °F 11 °F -37 °F (1971)
Degree Days  
Heating Degree Days 30    
Moisture  
Dew Point 29 °F    
Average Humidity 83    
Maximum Humidity 93    
Minimum Humidity 67    
Precipitation  
Precipitation 0.00 in - - ()
Sea Level Pressure  
Sea Level Pressure 29.96 in    
Wind  
Wind Speed 4 mph (SW)    
Max Wind Speed 16 mph    
Max Gust Speed 22 mph    
Visibility 10 miles    
Events      
Averages and records for this station are not official NWS values.
T = Trace of Precipitation, MM = Missing Value Source: NWS Daily Summary

Daily Weather History Graph

Daily Weather History Graph

Search for Another Location

Airport or City:

Trip Planner

Search our weather history database for the weather conditions in past years. The results will help you decide how hot, cold, wet, or windy it might be!

Date:

Astronomy

Mar. 09, 2013 Rise Set
Actual Time 7:38 AM AKST 6:53 PM AKST
Civil Twilight 6:56 AM AKST 7:35 PM AKST
Nautical Twilight 6:07 AM AKST 8:24 PM AKST
Astronomical Twilight 5:15 AM AKST 9:16 PM AKST
Moon 6:33 AM AKST (3/9) 4:48 PM AKST (3/9)
Length of Visible Light 12h 38m
Length of Day
11h 14m
Waning Crescent, 5% of the Moon is Illuminated
Mar 9
Waning Crescent
Mar 11
New
Mar 19
First Quarter
Mar 27
Full
Apr 2
Last Quarter

Hourly Weather History & Observations

Time (AKST) Temp. Windchill Dew Point Humidity Pressure Visibility Wind Dir Wind Speed Gust Speed Precip Events Conditions
12:53 AM 34.0 °F - 28.0 °F 79% 29.76 in 10.0 mi Calm Calm - N/A   Overcast
1:53 AM 33.1 °F 27.7 °F 28.9 °F 85% 29.78 in 10.0 mi NNE 5.8 mph - N/A   Overcast
3:53 AM 33.1 °F 30.0 °F 28.9 °F 85% 29.81 in 10.0 mi NNW 3.5 mph - 0.00 in   Overcast
4:53 AM 32.0 °F 27.5 °F 28.9 °F 88% 29.82 in 10.0 mi NNE 4.6 mph - N/A   Overcast
5:53 AM 32.0 °F - 28.0 °F 85% 29.83 in 10.0 mi Calm Calm - N/A   Overcast
6:53 AM 30.9 °F 27.5 °F 28.0 °F 89% 29.86 in 10.0 mi North 3.5 mph - N/A   Overcast
7:53 AM 30.9 °F - 28.0 °F 89% 29.87 in 10.0 mi Calm Calm - N/A   Overcast
8:53 AM 30.9 °F 27.5 °F 28.0 °F 89% 29.88 in 10.0 mi NNE 3.5 mph - N/A   Overcast
9:53 AM 30.9 °F - 28.0 °F 89% 29.90 in 10.0 mi Calm Calm - N/A   Overcast
10:53 AM 36.0 °F 33.3 °F 30.0 °F 79% 29.92 in 10.0 mi NNE 3.5 mph - N/A   Overcast
11:53 AM 39.0 °F - 28.9 °F 67% 29.94 in 10.0 mi Calm Calm - N/A   Overcast
12:53 PM 39.0 °F 35.7 °F 28.9 °F 67% 29.96 in 10.0 mi NNW 4.6 mph - N/A   Overcast
1:53 PM 37.9 °F 32.7 °F 28.9 °F 70% 29.96 in 10.0 mi West 6.9 mph - N/A   Overcast
2:53 PM 37.9 °F 34.4 °F 28.9 °F 70% 29.98 in 10.0 mi WNW 4.6 mph - N/A   Overcast
3:53 PM 37.9 °F 34.4 °F 30.0 °F 73% 29.99 in 10.0 mi NNW 4.6 mph - N/A   Overcast
4:53 PM 37.0 °F - 28.9 °F 73% 30.00 in 10.0 mi Calm Calm - N/A   Overcast
5:53 PM 36.0 °F 33.3 °F 30.0 °F 79% 30.02 in 10.0 mi WSW 3.5 mph - N/A   Overcast
6:53 PM 34.0 °F 29.8 °F 30.0 °F 85% 30.03 in 10.0 mi South 4.6 mph - N/A   Overcast
7:53 PM 34.0 °F 28.8 °F 30.0 °F 85% 30.05 in 10.0 mi South 5.8 mph - N/A   Overcast
8:53 PM 32.0 °F 25.6 °F 28.9 °F 88% 30.06 in 10.0 mi South 6.9 mph - N/A   Clear
9:31 PM 32.0 °F 25.6 °F 28.4 °F 87% 30.06 in 10.0 mi South 6.9 mph - N/A   Mostly Cloudy
9:53 PM 32.0 °F 24.8 °F 30.0 °F 92% 30.08 in 10.0 mi South 8.1 mph - N/A   Overcast
10:04 PM 33.8 °F 25.3 °F 30.2 °F 87% 30.07 in 10.0 mi South 11.5 mph - N/A   Overcast
10:16 PM 32.0 °F 21.6 °F 30.2 °F 93% 30.07 in 10.0 mi SSW 15.0 mph - N/A   Overcast
10:53 PM 33.1 °F 22.6 °F 30.9 °F 92% 30.09 in 10.0 mi SSW 16.1 mph 21.9 mph N/A   Overcast
11:44 PM 32.0 °F 23.6 °F 30.2 °F 93% 30.08 in 10.0 mi South 10.4 mph - N/A   Scattered Clouds
11:53 PM 32.0 °F 23.0 °F 30.0 °F 92% 30.10 in 10.0 mi South 11.5 mph - N/A   Partly Cloudy